Location: All Nations United Methodist Church
(33.0215°N, 96.7483°W)
Time: 15:20:01
(UTC+00:00)

Meteor 2-13 Rocket - Pass Details

Date: 24 January 2021
Orbit: 936 x 958 km, 82.5° (Epoch: 07 March)

Event Time Altitude Azimuth Distance (km) Brightness Sun altitude
Rises 12:07:08 0° 348° (NNW) 3,642 7.3 -16.8°
Reaches altitude 10° 12:09:41 10° 345° (NNW) 2,692 6.5 -16.2°
Maximum altitude 12:15:42 59° 268° (W) 1,097 4.5 -15.0°
Drops below altitude 10° 12:21:40 10° 190° (S) 2,666 6.8 -13.8°
Sets 12:24:11 0° 186° (S) 3,605 7.6 -13.3°
